Starlink 11537

operational
NORAD ID: 62911 Int'l Des: 2025-027 Owner: SPXS Country: US Constellation: starlink
LEOCIRCULAR

Starlink 11537について

説明を読み込み中...

リアルタイム位置

3D地球を読み込み中...

次回通過

高度履歴

Altitude vs Time

uPlot chart will show altitude changes over time

軌道要素

1 62911U 25027E 25351.42534878 .00237098 00000-0 17999-2 0 9998
2 62911 42.9991 123.5658 0001393 262.9463 97.1246 15.70828363 50257
Epoch: Dec 17, 2025 • Age: 10 hours

現在のステータス

高度 367.9 km
速度 7.69 km/s
衛星直下点 -41.90°S, 12.75°E
打ち上げ日 Feb 8, 2025
運用期間 0.8 years
タイプ internet

技術仕様

分類 Payload
質量 960.00 kg
乾燥質量 910.00 kg
総質量 960.00 kg
長さ 0.30 m
直径 4.10 m
スパン 29.00 m
形状 Box + pan
製造者 SPXS
バスタイプ Starlink V2MD
フェーズステータス In Orbit
所有者/国 SPXS/US

大規模コンステレーション

Loading constellations...